Location: Marcé
(47.5801°N, 0.3280°W)
Time: 23:29:11
(UTC+01:00)

S-56A Canister/Altair - Pass Details

Date: 08 December 2021
Orbit: 633 x 2499 km, 38.9° (Epoch: 16 January)

Event Time Altitude Azimuth Distance (km) Brightness Sun altitude
Rises 21:19:37 0° 201° (SSW) 6,035 12.2 -41.0°
Reaches altitude 10° 21:25:08 10° 188° (S) 4,830 11.5 -41.9°
Enters shadow 21:27:29 14° 179° (S) 4,369 11.2 -42.3°
Maximum altitude 21:33:49 21° 146° (SSE) 3,534 - -43.4°
Drops below altitude 10° 21:40:52 10° 103° (ESE) 3,843 - -44.5°
Sets 21:44:33 0° 88° (E) 4,520 - -45.1°
